Location: Betcave-Aguin
(43.4410°N, 0.6901°E)
Time: 15:37:15
(UTC+00:00)

Daily predictions for brighter satellites

Satellite Brightness Start Highest point End
(mag) Time Altitude Azimuth Time Altitude Azimuth Time Altitude Azimuth
Okean-O 4.5 19:34:22 10° E 19:37:00 16° ENE 19:39:38 10° NNE
Cosmos 676 Rocket 4.4 19:34:38 10° N 19:39:42 49° ENE 19:44:43 10° SE
Cosmos 1975 Rocket 3.7 19:37:06 10° NNW 19:41:23 59° W 19:45:36 10° S
Cosmos 1605 Rocket 4.2 19:37:28 10° S 19:43:38 80° W 19:49:55 10° N
Okean 1 Rocket 3.8 19:48:01 10° SSE 19:51:55 33° E 19:55:53 10° NNE
Cosmos 1980 Rocket 3.6 19:47:28 10° N 19:52:01 24° NE 19:56:31 10° ESE
ARIANE 6 FM1 Upper Stage 3.5 19:49:39 10° NW 19:53:27 44° WSW 19:57:13 10° SSE
SL-08 R/B 4.0 19:49:08 10° NNE 19:53:31 33° E 19:57:49 10° SSE
SL-24 R/B 4.2 19:50:53 10° NNE 19:55:28 83° WNW 19:59:46 10° SSW
Cosmos 2084 4.4 19:51:32 10° SW 19:55:33 50° NW 19:59:36 10° NNE
CZ-4 R/B 1.1 19:54:36 10° SSE 19:58:14 85° W 20:01:52 10° NNW
Meteor 2-3 Rocket 4.1 19:52:56 10° N 19:58:23 48° ENE 20:03:48 10° SSE
CZ-4B R/B 4.1 19:57:19 10° S 20:01:16 70° WSW 20:05:18 10° NNW
ASTEX 1 3.4 19:59:25 10° S 20:04:21 89° E 20:09:21 10° N
SPOT 5 3.6 20:00:24 10° S 20:04:31 46° W 20:08:42 10° NNW
CZ-4B DEB 4.2 20:00:18 10° SSE 20:05:48 88° ENE 20:11:22 10° NNW
Cosmos 2056 Rocket 4.0 20:02:11 10° SSW 20:07:33 69° WNW 20:12:57 10° NNE
CZ-4B R/B 3.3 20:02:34 10° SSE 20:08:09 67° ENE 20:13:46 10° N
Cosmos 1833 Rocket 2.8 20:02:56 10° SSW 20:08:33 85° WNW 20:14:12 10° NNE
CSL-04 Rocket 4.4 20:03:29 10° S 20:08:53 56° W 20:14:16 10° NNW
Cosmos 1110 Rocket 4.2 20:03:57 10° S 20:09:01 51° ESE 20:14:09 10° NNE
Cosmos 1802 Rocket 4.5 20:03:53 10° SSE 20:09:35 40° E 20:15:14 10° NNE
Cosmos 1624 Rocket 4.4 20:05:24 10° SSW 20:10:32 67° WNW 20:15:42 10° NNE
Terra 1.8 20:07:42 10° SSE 20:12:22 76° ENE 20:17:04 10° N
CBERS 1 LM4 rocket 4.4 20:08:03 10° SSE 20:12:54 79° ENE 20:17:58 10° NNW
Gbstr 26 Del rocket 4.4 20:09:39 10° NW 20:14:35 38° NNE 20:18:42 10° E
Sich 1 Rocket 3.7 20:10:30 10° S 20:14:42 51° E 20:18:56 10° NNE
SJ 16-02 3.5 20:18:15 10° NW 20:21:35 22° W 20:24:53 10° SSW
MetOp-B 4.1 20:17:34 10° SSE 20:22:55 89° WSW 20:28:18 10° NNW
PAYLOAD B 4.4 20:19:06 10° S 20:24:34 74° WSW 20:30:07 10° NNW
USA 229 DEB 4.1 20:19:34 10° NW 20:27:14 89° SW 20:34:05 17° SSE
USA 229 4.1 20:19:37 10° NW 20:27:17 90° SW 20:34:07 17° SE
Cosmos 1743 3.4 20:25:23 10° NNE 20:27:56 24° ENE 20:28:34 23° E
Cosmos 44 Rocket 3.4 20:24:18 10° SSW 20:29:12 57° ESE 20:34:16 10° NE
Cosmos 1459 Rocket 3.9 20:24:14 10° S 20:30:29 78° E 20:36:40 10° N
ISS -3.6 20:27:18 10° SW 20:30:30 46° SE 20:33:43 10° ENE
SKYMED 3 4.4 20:28:01 10° N 20:31:58 80° WNW 20:35:54 10° SSW
Cosmos 2100 Rocket 4.0 20:27:49 10° S 20:34:02 90° W 20:40:21 10° N
Ariane Rocket 4.3 20:32:21 17° ESE 20:34:53 26° ENE 20:39:01 10° N
ADEOS 3.7 20:32:34 11° S 20:37:29 75° WSW 20:42:43 10° NNW
ATLAS 2AS CENTAUR R/B 3.9 20:31:22 10° WSW 20:37:59 45° NW 20:44:31 10° NNE
Spot 2 Rocket 3.4 20:36:58 19° SSE 20:40:36 75° ENE 20:45:38 10° N
BREEZE-M DEB (TANK) 3.3 20:39:11 10° WNW 20:42:11 81° NNE 20:47:10 19° ESE
SL-4 R/B 1.8 20:39:11 10° WNW 20:43:00 74° SW 20:44:44 31° SE
MOS 1-B 4.3 20:39:56 19° SSE 20:44:12 75° ENE 20:50:00 10° N
Cosmos 2082 Rocket 2.7 20:40:45 16° SSE 20:44:42 38° ESE 20:49:56 10° NE
Okean 2 Rocket 3.7 20:40:34 10° SSW 20:44:56 57° W 20:49:23 10° N
Cosmos 1607 3.9 20:49:37 10° SSW 20:55:34 56° ESE 21:01:39 10° NE
Cosmos 2233 Rocket 4.1 20:51:19 20° SSE 20:55:37 57° E 21:01:40 10° NNE
Cosmos 2228 3.1 20:55:36 34° SSE 20:57:01 51° E 21:01:01 10° NNE
SL-08 R/B 4.5 20:52:56 16° S 20:57:59 69° E 21:04:18 10° NNE
Cosmos 292 Rocket 4.2 20:53:58 10° NNW 20:58:39 57° WSW 21:01:33 22° S
USA 186 1.3 20:58:27 62° SSW 20:58:42 70° WSW 21:01:23 10° NNW
Okean O Rocket 1.6 20:57:28 25° S 20:59:54 73° WSW 21:04:13 10° NNW
DELTA 2 R/B (1) 4.1 20:56:41 10° SW 21:01:44 36° SSE 21:03:11 31° SE
Tsikada Rocket 4.0 20:59:38 10° N 21:05:46 63° E 21:08:51 30° SSE
CZ-4C R/B 2.2 21:02:35 10° SW 21:06:36 60° NW 21:11:43 10° NNE
Cosmos 1725 Rocket 4.1 21:00:23 10° S 21:06:41 82° W 21:12:58 10° N
Cosmos 1452 Rocket 3.6 21:02:07 10° SSW 21:07:20 77° WNW 21:12:35 10° NNE
COSMOS 2406 4.1 21:07:29 28° ESE 21:07:54 28° ESE 21:12:42 10° NE
Cosmos 1697 Rocket 3.5 21:02:50 10° NW 21:08:10 45° WSW 21:11:52 19° S
Cosmos 1741 Rocket 4.1 21:05:04 10° NNW 21:10:23 75° WSW 21:13:01 30° S
SL-16 R/B 3.8 21:07:55 10° N 21:12:21 23° NE 21:14:58 17° E
Okean-O 3.1 21:10:27 25° SSW 21:12:49 55° W 21:17:08 10° NNW
ATLAS 3B R/B 3.1 21:09:02 10° NW 21:16:40 64° WSW 21:20:47 27° S
CZ-4B R/B 3.3 21:19:07 43° SE 21:20:35 70° ENE 21:25:21 10° N
Cosmos 1892 Rocket 4.0 21:17:26 10° NNW 21:21:41 57° W 21:23:28 32° SSW
USA 245 4.3 21:18:49 32° SSE 21:21:43 87° WSW 21:27:39 10° NNW
Cosmos 1455 Rocket 3.9 21:19:52 15° SSW 21:23:21 49° WNW 21:27:39 10° N
Cosmos 1302 Rocket 3.9 21:21:11 18° SSW 21:25:01 87° WNW 21:30:14 10° NNE
Cosmos 2333 Rocket 3.7 21:20:39 10° N 21:25:18 25° NE 21:27:39 19° E
Cosmos 2016 Rocket 4.3 21:19:36 10° SSW 21:25:48 64° W 21:32:00 10° N
CZ-4B R/B 2.6 21:33:11 63° WSW 21:33:13 63° W 21:36:33 10° NNW
Cosmos 2061 Rocket 3.9 21:29:50 26° S 21:33:33 88° W 21:39:51 10° N
Cosmos 1782 3.7 21:32:58 28° SW 21:34:13 39° WNW 21:37:33 10° N
Cosmos 1544 Rocket 3.5 21:35:33 58° ESE 21:35:41 58° E 21:39:59 10° NNE
SPOT 3 Rocket 3.6 21:34:29 39° S 21:36:23 71° WSW 21:41:32 10° NNW
Cosmos 1980 Rocket 2.5 21:30:48 10° NNW 21:36:25 61° WSW 21:38:32 37° S
NOSS 3-3 (A) 3.4 21:34:26 27° SSW 21:37:14 74° ESE 21:43:09 10° NE
BREEZE-M DEB (TANK) 4.1 21:33:26 10° SW 21:36:17 28° SW 21:36:17 28° SW
Cosmos 1933 4.0 21:44:19 39° NE 21:44:19 39° NE 21:47:06 10° NNE
Fengyun 1C 4.5 21:42:41 51° SSE 21:44:06 90° NE 21:49:23 10° NNW
Cosmos 2084 Rocket 3.6 21:46:00 10° NNW 21:50:09 59° NE 21:50:19 59° ENE
Terra 4.5 21:48:49 10° WSW 21:50:25 12° W 21:52:03 10° WNW
Helios 1B rocket 4.3 21:51:51 16° NE 21:51:51 16° NE 21:53:27 10° NNE
IRS-1C Rocket 4.3 21:51:54 44° SSW 21:53:25 64° WSW 21:58:41 10° NNW
Cosmos 1758 Rocket 3.4 21:49:08 10° N 21:53:32 87° E 21:53:42 82° SSE
CZ-2C R/B 4.0 21:55:17 28° NW 21:55:17 28° NW 21:56:49 10° NNW
Cosmos 1464 Rocket 4.3 21:53:23 43° ESE 21:54:15 46° E 22:00:05 10° NNE
Milstar 3 4.3 21:48:26 10° WSW 21:54:31 26° S 21:54:31 26° S
Cosmos 1513 Rocket 4.4 21:56:21 49° SSE 21:58:04 74° E 22:04:15 10° NNE
Gbstr 26 Del rocket 3.1 21:56:35 10° WNW 22:00:52 63° WSW 22:00:52 63° WSW
Cosmos 2360 Rocket 3.5 21:57:45 10° N 22:02:35 28° NE 22:04:14 24° E
NOSS 3-3 (C) 3.6 22:02:52 35° SW 22:05:09 85° NW 22:11:15 10° NE
ISS -2.0 22:04:20 10° W 22:07:24 32° NNW 22:08:14 28° N
Cosmos 1072 Rocket 4.5 22:08:18 56° SE 22:09:26 67° E 22:15:40 10° NNE
Geosat 4.1 22:05:55 10° NNE 22:10:55 75° WNW 22:12:24 46° SW
Cosmos 2237 4.2 22:06:35 10° NNW 22:12:18 70° WSW 22:13:13 59° SSW
Ariane Rocket 3.8 22:12:25 36° SW 22:13:32 41° W 22:18:18 10° NNW
USA 305 3.8 22:10:24 10° NW 22:13:09 38° NNW 22:13:09 38° NNW
Cosmos 1602 Rocket 3.7 22:14:52 10° N 22:18:42 70° NNW 22:18:42 70° NNW
Cosmos 2219 Rocket 3.8 22:15:29 10° N 22:20:04 24° NE 22:21:48 21° ENE
Cosmos 1437 Rocket 3.9 22:21:47 38° NNW 22:21:47 38° NNW 22:24:17 10° N
Cosmos 2369 4.3 22:22:08 10° NW 22:27:34 45° WSW 22:28:18 43° SW
Cosmos 2034 Rocket 4.1 22:27:37 55° ESE 22:28:12 57° E 22:34:26 10° NNE
Cosmos 2082 Rocket 3.7 22:23:35 10° WSW 22:28:46 35° NW 22:33:59 10° N
Cosmos 2151 3.8 22:25:28 10° NNW 22:28:56 43° WNW 22:28:56 43° WNW
Cosmos 2322 Rocket 2.7 22:24:52 10° NNW 22:30:19 46° ENE 22:31:03 44° E
Cosmos 1428 Rocket 4.4 22:24:19 10° N 22:30:34 70° E 22:31:20 63° ESE
Meteor 1-5 Rocket 4.1 22:33:57 10° N 22:39:39 88° W 22:40:03 79° S
USA 234 3.1 22:34:27 10° NE 22:41:01 76° SE 22:42:48 51° SSW
Cosmos 1763 Rocket 4.2 22:45:39 42° ENE 22:45:39 42° ENE 22:49:37 10° NNE
Okean 1-7 Rocket 4.1 22:43:29 10° NNW 22:47:08 57° NW 22:47:08 57° NW
Cosmos 1503 Rocket 4.3 22:44:05 10° NNW 22:49:02 54° ENE 22:49:02 54° ENE
Cosmos 1777 Rocket 4.1 22:44:16 10° NNW 22:49:16 70° NE 22:49:16 70° NE
Cosmos 2278 3.6 22:43:46 10° NNW 22:49:31 88° ENE 22:49:38 86° SE
Helios 1A 4.0 22:45:49 10° N 22:48:44 41° NNW 22:48:44 41° NNW
COSMOS 2406 4.1 22:49:26 29° WSW 22:51:55 46° WNW 22:57:27 10° NNE
Cosmos 1606 Rocket 4.3 22:52:45 51° NNW 22:52:45 51° NNW 22:56:15 10° N
SL-16 R/B 2.3 22:51:17 10° NNW 22:56:48 64° WSW 22:56:48 64° WSW
Cosmos 1634 Rocket 4.2 22:57:50 53° E 22:57:51 53° E 23:03:50 10° NNE
Cosmos 1486 Rocket 4.1 22:56:01 10° NNW 23:00:50 73° NW 23:00:50 73° NW
Nadezhda 4 Rocket 4.1 22:56:14 10° NNW 23:02:14 60° W 23:02:51 57° WSW
Cosmos 2098 Rocket 4.3 23:02:09 40° W 23:02:30 40° WNW 23:06:59 10° N
SeaSat 1 4.4 23:03:53 18° ENE 23:05:20 21° NE 23:08:55 10° N
Cosmos 2333 Rocket 2.5 23:04:22 10° NNW 23:09:39 56° W 23:09:39 56° W
Meteor 2-2 Rocket 4.3 23:10:21 67° ENE 23:10:21 67° ENE 23:15:39 10° NNE
CZ-2C R/B 3.9 23:16:22 29° ENE 23:16:49 29° ENE 23:21:18 10° N
BREEZE-M DEB (TANK) 4.0 23:08:27 10° W 23:16:58 62° N 23:21:53 10° E
Cosmos 1833 4.2 23:17:41 73° NE 23:17:41 73° NE 23:22:51 10° NNE
Cosmos 1627 Rocket 4.4 23:11:04 10° N 23:17:28 85° W 23:17:52 79° SSW
Spot 4 4.3 23:23:21 58° NNW 23:23:21 58° NNW 23:27:13 10° NNW
Cosmos 2026 Rocket 4.0 23:20:36 10° NNW 23:26:56 69° W 23:27:17 68° WSW
Aureole 1 Rocket 4.1 23:26:15 10° NNW 23:31:40 58° ENE 23:32:03 57° E
Cosmos 2297 Rocket 4.3 23:33:58 14° E 23:33:58 14° E 23:35:58 10° ENE
DNEPR-1 R/B 4.5 23:28:15 10° NW 23:33:34 67° W 23:33:34 67° W
Cosmos 2333 4.4 23:34:23 10° NNW 23:39:28 63° WNW 23:39:28 63° WNW
ALOS 2 3.8 23:43:55 39° NW 23:43:55 39° NW 23:46:50 10° NNW
ARIANE 5 R/B 3.9 23:44:33 35° NW 23:44:33 35° NW 23:47:25 10° NNW
Cosmos 2360 Rocket 2.8 23:41:21 10° NW 23:45:57 45° W 23:45:57 45° W
Cosmos 2058 Rocket 4.4 23:48:52 36° NW 23:48:52 36° NW 23:51:53 10° N
Meteor 1-11 Rocket 4.5 23:43:53 10° N 23:49:17 42° ENE 23:49:31 41° E
Cosmos 468 Rocket 4.3 23:51:08 66° NNE 23:51:08 66° NNE 23:55:39 10° NNE
GP-B 4.4 23:46:21 10° NNE 23:49:14 36° NE 23:49:14 36° NE
